M I D A S
Marine Information and Data Acquisition System
Tripno 1780 of the Zeeleeuw from 2009-09-18 06:49:10 to 2009-09-18 15:24:44
Back to CruiseResearch ActivitiesStationsMapUnderway DataData graphs

EquipmentUnitsComments
TimeDGPSUTC
LatitudeDGPSDM.mWGS84
LongitudeDGPSDM.mWGS84
SpeedMeteo Stationm/sRelative wind speed
DirectionMeteo StationdegRelative wind direction
TemperatureMeteo Stationdeg CelciusAir temperature
PressureMeteo StationPaAtmospheric pressure
HumidityMeteo Station%Relative humidity
Missing or incorrect values are displayed as -999
Metereological data collected by the RV Zeeleeuw from 2009-09-18 06:34:36 to 2009-09-18 15:24:44
                                                                                    Next 1000 lines
Time Latitude Longitude Speed Direction Temperature Pressure Humidity
2009-09-18 06:34:46 51°13.663 2°55.958 2.7 320 12.4 101880 40
2009-09-18 06:34:50 51°13.662 2°55.958 3.1 281 12.4 101880 41
2009-09-18 06:34:55 51°13.662 2°55.958 2.2 316 12.4 101880 41
2009-09-18 06:35:00 51°13.662 2°55.958 2.2 281 12.4 101880 40
2009-09-18 06:35:05 51°13.662 2°55.958 0.5 239 12.4 101880 40
2009-09-18 06:35:10 51°13.663 2°55.958 0.2 25 12.4 101880 38
2009-09-18 06:35:15 51°13.663 2°55.958 4 31 12.4 101880 38
2009-09-18 06:35:20 51°13.663 2°55.958 2.3 280 12.4 101880 38
2009-09-18 06:35:25 51°13.663 2°55.959 4.1 33 12.4 101880 38
2009-09-18 06:35:29 51°13.663 2°55.958 4.1 280 12.4 101880 41
2009-09-18 06:35:34 51°13.663 2°55.958 1.6 328 12.4 101880 41
2009-09-18 06:35:39 51°13.663 2°55.958 2.3 279 12.4 101880 40
2009-09-18 06:35:44 51°13.663 2°55.958 1.5 247 12.4 101880 40
2009-09-18 06:35:49 51°13.663 2°55.958 3 284 12.4 101880 39
2009-09-18 06:35:54 51°13.663 2°55.958 3.9 32 12.4 101880 39
2009-09-18 06:35:57 51°13.663 2°55.958 3.8 285 12.4 101880 41
2009-09-18 06:36:02 51°13.662 2°55.959 4.6 240 12.4 101880 41
2009-09-18 06:36:08 51°13.662 2°55.959 2.3 283 12.4 101890 41
2009-09-18 06:36:13 51°13.662 2°55.959 1.8 37 12.4 101890 41
2009-09-18 06:36:18 51°13.663 2°55.959 3.1 280 12.4 101890 39
2009-09-18 06:36:23 51°13.663 2°55.959 3.8 30 12.4 101890 39
2009-09-18 06:36:28 51°13.663 2°55.959 4.9 278 12.4 101880 40
2009-09-18 06:36:33 51°13.663 2°55.959 5.9 236 12.4 101880 40
2009-09-18 06:36:38 51°13.663 2°55.959 5 284 12.4 101890 40
2009-09-18 06:36:43 51°13.662 2°55.959 5.6 33 12.4 101890 40
2009-09-18 06:36:48 51°13.662 2°55.959 4.4 284 12.4 101880 41
2009-09-18 06:36:53 51°13.662 2°55.959 4.4 35 12.4 101880 41
2009-09-18 06:36:58 51°13.663 2°55.959 2.8 281 12.4 101880 39
2009-09-18 06:37:03 51°13.662 2°55.959 3.2 31 12.4 101880 39
2009-09-18 06:37:08 51°13.662 2°55.959 2.4 285 12.4 101880 41
2009-09-18 06:37:13 51°13.662 2°55.959 3.9 241 12.4 101880 41
2009-09-18 06:37:18 51°13.663 2°55.959 4.1 283 12.4 101880 41
2009-09-18 06:37:22 51°13.663 2°55.959 1.9 318 12.4 101880 41
2009-09-18 06:37:28 51°13.662 2°55.959 0.1 282 12.4 101880 41
2009-09-18 06:37:33 51°13.663 2°55.959 0.4 30 12.4 101880 41
2009-09-18 06:37:38 51°13.663 2°55.959 1.4 278 12.4 101880 41
2009-09-18 06:37:43 51°13.663 2°55.959 2.6 316 12.4 101880 41
2009-09-18 06:37:47 51°13.663 2°55.959 2.8 285 12.4 101880 40
2009-09-18 06:37:53 51°13.662 2°55.959 2.8 34 12.4 101880 40
2009-09-18 06:37:58 51°13.663 2°55.959 2.2 278 12.4 101890 42
2009-09-18 06:38:03 51°13.663 2°55.959 2.9 36 12.4 101890 42
2009-09-18 06:38:07 51°13.663 2°55.959 0.9 24 12.4 101880 39
2009-09-18 06:38:13 51°13.663 2°55.959 0.1 35 12.4 101880 39
2009-09-18 06:38:18 51°13.663 2°55.959 0.1 282 12.4 101890 40
2009-09-18 06:38:22 51°13.663 2°55.959 -999 322 12.4 101890 40
2009-09-18 06:38:28 51°13.663 2°55.959 3.1 281 12.4 101880 42
2009-09-18 06:38:33 51°13.663 2°55.959 3.1 32 12.4 101880 42
2009-09-18 06:38:38 51°13.663 2°55.959 3.9 279 12.5 101890 40
2009-09-18 06:38:43 51°13.663 2°55.959 4.1 234 12.5 101890 40
2009-09-18 06:38:47 51°13.663 2°55.959 2.8 282 12.5 101890 40
2009-09-18 06:38:53 51°13.662 2°55.959 2.7 319 12.5 101890 40
2009-09-18 06:38:57 51°13.663 2°55.959 2.9 284 12.5 101880 39
2009-09-18 06:39:03 51°13.663 2°55.959 3.7 240 12.5 101880 39
2009-09-18 06:39:08 51°13.663 2°55.959 3.6 19 12.5 101890 41
2009-09-18 06:39:13 51°13.663 2°55.959 1.1 32 12.5 101890 41
2009-09-18 06:39:18 51°13.663 2°55.959 3.8 286 12.5 101880 40
2009-09-18 06:39:23 51°13.663 2°55.959 3.7 36 12.5 101880 40
2009-09-18 06:39:28 51°13.663 2°55.959 3.5 283 12.5 101880 41
2009-09-18 06:39:33 51°13.663 2°55.959 3.4 237 12.5 101880 41
2009-09-18 06:39:38 51°13.663 2°55.959 3.1 282 12.5 101880 41
2009-09-18 06:39:42 51°13.663 2°55.959 1.9 238 12.5 101880 41
2009-09-18 06:39:47 51°13.663 2°55.959 2.8 279 12.5 101880 41
2009-09-18 06:39:53 51°13.663 2°55.959 3.5 35 12.5 101880 41
2009-09-18 06:39:58 51°13.663 2°55.959 4.5 278 12.5 101880 40
2009-09-18 06:40:02 51°13.663 2°55.959 3.7 33 12.5 101880 40
2009-09-18 06:40:07 51°13.663 2°55.959 3.7 284 12.5 101880 38
2009-09-18 06:40:13 51°13.663 2°55.959 3.9 242 12.5 101880 38
2009-09-18 06:40:18 51°13.663 2°55.959 3.2 286 12.5 101880 39
2009-09-18 06:40:23 51°13.663 2°55.959 3 240 12.5 101880 39
2009-09-18 06:40:28 51°13.663 2°55.959 1.5 284 12.5 101890 39
2009-09-18 06:40:33 51°13.663 2°55.959 0.6 231 12.5 101890 39
2009-09-18 06:40:38 51°13.663 2°55.959 0.9 282 12.5 101880 39
2009-09-18 06:40:42 51°13.663 2°55.959 2.5 244 12.5 101880 39
2009-09-18 06:40:48 51°13.663 2°55.959 0.8 287 12.5 101890 41
2009-09-18 06:40:53 51°13.663 2°55.959 0.2 33 12.5 101890 41
2009-09-18 06:40:58 51°13.663 2°55.959 0.1 283 12.5 101890 40
2009-09-18 06:41:03 51°13.663 2°55.959 1.2 240 12.5 101890 40
2009-09-18 06:41:08 51°13.663 2°55.959 0.3 243 12.5 101880 38
2009-09-18 06:41:13 51°13.663 2°55.959 3.4 319 12.5 101880 38
2009-09-18 06:41:18 51°13.663 2°55.959 1.4 279 12.5 101880 40
2009-09-18 06:41:23 51°13.663 2°55.959 2.6 37 12.5 101880 40
2009-09-18 06:41:28 51°13.663 2°55.959 2.8 280 12.5 101880 40
2009-09-18 06:41:33 51°13.663 2°55.959 2.3 251 12.5 101880 40
2009-09-18 06:41:37 51°13.663 2°55.959 1.9 282 12.5 101880 41
2009-09-18 06:41:43 51°13.663 2°55.959 2.6 36 12.5 101880 41
2009-09-18 06:41:48 51°13.663 2°55.959 3.2 285 12.5 101880 41
2009-09-18 06:41:53 51°13.663 2°55.959 3.1 233 12.5 101880 41
2009-09-18 06:41:58 51°13.663 2°55.959 2 280 12.5 101880 39
2009-09-18 06:42:02 51°13.663 2°55.959 2.1 240 12.5 101880 39
2009-09-18 06:42:07 51°13.662 2°55.959 1.8 251 12.5 101880 40
2009-09-18 06:42:13 51°13.662 2°55.96 2.5 316 12.5 101880 40
2009-09-18 06:42:18 51°13.662 2°55.96 4.7 285 12.5 101890 41
2009-09-18 06:42:22 51°13.662 2°55.96 3.2 323 12.5 101890 41
2009-09-18 06:42:27 51°13.662 2°55.96 2.8 284 12.5 101890 41
2009-09-18 06:42:33 51°13.662 2°55.96 3.5 32 12.5 101890 41
2009-09-18 06:42:38 51°13.662 2°55.96 3.5 284 12.5 101880 38
2009-09-18 06:42:43 51°13.662 2°55.96 3.3 40 12.5 101880 38
2009-09-18 06:42:48 51°13.662 2°55.96 3.5 282 12.6 101880 41
2009-09-18 06:42:53 51°13.662 2°55.96 1.9 236 12.6 101880 41
2009-09-18 06:42:58 51°13.662 2°55.96 0.1 282 12.5 101880 39
2009-09-18 06:43:02 51°13.661 2°55.96 1.6 234 12.5 101880 39
2009-09-18 06:43:08 51°13.661 2°55.961 2.4 26 12.5 101890 41
2009-09-18 06:43:13 51°13.661 2°55.96 0.7 319 12.5 101890 41
2009-09-18 06:43:18 51°13.661 2°55.96 0.1 282 12.6 101890 40
2009-09-18 06:43:22 51°13.661 2°55.96 0.1 40 12.6 101890 40
2009-09-18 06:43:27 51°13.661 2°55.96 0.8 286 12.6 101890 41
2009-09-18 06:43:33 51°13.661 2°55.96 0.2 33 12.6 101890 41
2009-09-18 06:43:38 51°13.661 2°55.96 0.1 282 12.6 101890 38
2009-09-18 06:43:42 51°13.661 2°55.96 0.7 316 12.6 101890 38
2009-09-18 06:43:48 51°13.661 2°55.96 1.9 280 12.6 101880 41
2009-09-18 06:43:53 51°13.66 2°55.96 3.7 330 12.6 101880 41
2009-09-18 06:43:58 51°13.66 2°55.96 2.8 279 12.6 101880 40
2009-09-18 06:44:02 51°13.66 2°55.96 3.6 37 12.6 101880 40
2009-09-18 06:44:08 51°13.66 2°55.96 2.1 284 12.6 101890 38
2009-09-18 06:44:13 51°13.66 2°55.959 0.9 327 12.6 101890 38
2009-09-18 06:44:18 51°13.661 2°55.958 0.1 282 12.6 101880 40
2009-09-18 06:44:23 51°13.661 2°55.956 0.1 233 12.6 101880 40
2009-09-18 06:44:27 51°13.662 2°55.955 0.1 282 12.6 101890 41
2009-09-18 06:44:33 51°13.663 2°55.951 0.1 315 12.6 101890 41
2009-09-18 06:44:38 51°13.664 2°55.948 0.1 282 12.6 101880 39
2009-09-18 06:44:44 51°13.665 2°55.944 -999 35 12.6 101880 39
2009-09-18 06:44:49 51°13.666 2°55.94 -999 282 12.6 101880 39
2009-09-18 06:44:55 51°13.668 2°55.934 -999 35 12.6 101880 39
2009-09-18 06:45:01 51°13.67 2°55.928 -999 283 12.6 101890 40
2009-09-18 06:45:06 51°13.671 2°55.923 -999 35 12.6 101890 40
2009-09-18 06:45:11 51°13.672 2°55.917 -999 282 12.6 101880 40
2009-09-18 06:45:16 51°13.673 2°55.911 -999 249 12.6 101880 40
2009-09-18 06:45:21 51°13.675 2°55.904 -999 282 12.6 101890 40
2009-09-18 06:45:26 51°13.676 2°55.897 -999 241 12.6 101890 40
2009-09-18 06:45:31 51°13.677 2°55.89 3.4 285 12.6 101890 40
2009-09-18 06:45:36 51°13.678 2°55.883 3.1 231 12.6 101890 40
2009-09-18 06:45:41 51°13.68 2°55.875 2.3 280 12.6 101890 39
2009-09-18 06:45:46 51°13.681 2°55.868 3.5 247 12.6 101890 39
2009-09-18 06:45:51 51°13.683 2°55.86 1.3 284 12.6 101890 38
2009-09-18 06:45:56 51°13.684 2°55.852 0.2 238 12.6 101890 38
2009-09-18 06:46:01 51°13.686 2°55.844 0.1 281 12.6 101890 41
2009-09-18 06:46:06 51°13.687 2°55.836 0.6 242 12.6 101890 41
2009-09-18 06:46:11 51°13.688 2°55.828 2.5 286 12.6 101880 41
2009-09-18 06:46:16 51°13.69 2°55.82 3.2 33 12.6 101880 41
2009-09-18 06:46:21 51°13.691 2°55.812 2.8 284 12.6 101880 39
2009-09-18 06:46:26 51°13.692 2°55.805 1.9 245 12.6 101880 39
2009-09-18 06:46:31 51°13.693 2°55.797 2.9 286 12.6 101880 41
2009-09-18 06:46:35 51°13.694 2°55.791 2.4 37 12.6 101880 41
2009-09-18 06:46:41 51°13.695 2°55.783 0.2 283 12.6 101880 40
2009-09-18 06:46:46 51°13.696 2°55.776 0.1 38 12.6 101880 40
2009-09-18 06:46:51 51°13.696 2°55.769 0.1 282 12.6 101890 41
2009-09-18 06:46:56 51°13.697 2°55.763 -999 327 12.6 101890 41
2009-09-18 06:47:01 51°13.697 2°55.757 0.1 287 12.6 101880 40
2009-09-18 06:47:06 51°13.697 2°55.752 0.1 321 12.6 101880 40
2009-09-18 06:47:11 51°13.698 2°55.749 0.1 22 12.6 101880 40
2009-09-18 06:47:16 51°13.698 2°55.747 -999 337 12.6 101880 40
2009-09-18 06:47:21 51°13.698 2°55.746 0.3 282 12.6 101880 40
2009-09-18 06:47:26 51°13.698 2°55.746 0.1 346 12.6 101880 40
2009-09-18 06:47:30 51°13.699 2°55.746 3.4 282 12.6 101890 40
2009-09-18 06:47:35 51°13.7 2°55.747 3.2 339 12.6 101890 40
2009-09-18 06:47:40 51°13.7 2°55.748 3.5 280 12.6 101880 38
2009-09-18 06:47:45 51°13.701 2°55.749 0.9 340 12.6 101880 38
2009-09-18 06:47:49 51°13.702 2°55.75 1.8 284 12.6 101880 40
2009-09-18 06:47:54 51°13.703 2°55.751 2.7 346 12.6 101880 40
2009-09-18 06:47:58 51°13.703 2°55.751 2.6 285 12.6 101880 41
2009-09-18 06:48:04 51°13.703 2°55.751 2.9 357 12.6 101880 41
2009-09-18 06:48:09 51°13.703 2°55.75 2.5 350 12.6 101880 38
2009-09-18 06:48:13 51°13.703 2°55.749 1.1 355 12.6 101880 38
2009-09-18 06:48:18 51°13.702 2°55.748 0.1 1 12.7 101880 38
2009-09-18 06:48:22 51°13.701 2°55.747 0.1 1 12.7 101880 38
2009-09-18 06:48:27 51°13.7 2°55.745 -999 17 12.6 101880 39
2009-09-18 06:48:33 51°13.697 2°55.743 -999 17 12.6 101880 39
2009-09-18 06:48:38 51°13.696 2°55.741 3 8 12.7 101880 39
2009-09-18 06:48:43 51°13.694 2°55.74 3.3 3 12.7 101880 39
2009-09-18 06:48:49 51°13.692 2°55.738 2.5 4 12.7 101880 40
2009-09-18 06:48:55 51°13.691 2°55.737 2.6 9 12.7 101880 40
2009-09-18 06:49:00 51°13.692 2°55.736 1.7 17 12.7 101880 40
2009-09-18 06:49:06 51°13.693 2°55.735 3.4 20 12.7 101880 40
2009-09-18 06:49:11 51°13.695 2°55.735 3.5 10 12.7 101880 41
2009-09-18 06:49:16 51°13.698 2°55.734 2.4 4 12.7 101880 41
2009-09-18 06:49:21 51°13.701 2°55.732 4.4 15 12.7 101880 39
2009-09-18 06:49:26 51°13.705 2°55.729 3.9 15 12.7 101880 39
2009-09-18 06:49:30 51°13.708 2°55.727 5.9 14 12.7 101880 40
2009-09-18 06:49:36 51°13.713 2°55.722 5.4 20 12.7 101880 40
2009-09-18 06:49:40 51°13.718 2°55.719 4.3 18 12.7 101880 38
2009-09-18 06:49:45 51°13.723 2°55.714 4.7 13 12.7 101880 38
2009-09-18 06:49:50 51°13.729 2°55.709 4.9 9 12.7 101880 38
2009-09-18 06:49:54 51°13.734 2°55.705 4.9 10 12.7 101880 38
2009-09-18 06:49:59 51°13.741 2°55.699 4.3 357 12.6 101880 40
2009-09-18 06:50:04 51°13.749 2°55.693 5.3 353 12.6 101880 40
2009-09-18 06:50:09 51°13.756 2°55.688 5.4 355 12.6 101880 40
2009-09-18 06:50:14 51°13.764 2°55.681 5.2 359 12.6 101880 40
2009-09-18 06:50:18 51°13.771 2°55.677 4.7 358 12.6 101880 39
2009-09-18 06:50:23 51°13.779 2°55.67 5.4 346 12.6 101880 39
2009-09-18 06:50:29 51°13.789 2°55.662 5.4 354 12.7 101880 40
2009-09-18 06:50:33 51°13.796 2°55.657 5.2 358 12.7 101880 40
2009-09-18 06:50:38 51°13.805 2°55.65 4.2 280 12.6 101880 39
2009-09-18 06:50:42 51°13.812 2°55.645 4.2 348 12.6 101880 39
2009-09-18 06:50:47 51°13.821 2°55.638 3.5 286 12.6 101880 38
2009-09-18 06:50:53 51°13.832 2°55.63 3.2 342 12.6 101880 38
2009-09-18 06:50:57 51°13.84 2°55.624 3.2 283 12.6 101880 39
2009-09-18 06:51:02 51°13.85 2°55.617 4.9 348 12.6 101880 39
2009-09-18 06:51:08 51°13.861 2°55.609 6.2 347 12.6 101880 38
2009-09-18 06:51:13 51°13.871 2°55.602 2.4 358 12.6 101880 38
2009-09-18 06:51:17 51°13.878 2°55.596 5 -999 12.6 101880 38
2009-09-18 06:51:22 51°13.888 2°55.588 5 6 12.6 101880 38
2009-09-18 06:51:27 51°13.898 2°55.581 4.9 5 12.6 101880 39
2009-09-18 06:51:33 51°13.911 2°55.572 4.9 359 12.6 101880 39
2009-09-18 06:51:38 51°13.921 2°55.564 5.7 359 12.6 101880 37
2009-09-18 06:51:42 51°13.929 2°55.559 5 343 12.6 101880 37
2009-09-18 06:51:48 51°13.942 2°55.549 4.4 358 12.6 101880 38
2009-09-18 06:51:52 51°13.95 2°55.543 4.4 355 12.6 101880 38
2009-09-18 06:51:58 51°13.963 2°55.534 5.2 351 12.6 101880 38
2009-09-18 06:52:02 51°13.971 2°55.527 5 355 12.6 101880 38
2009-09-18 06:52:08 51°13.984 2°55.518 6.1 353 12.6 101880 40
2009-09-18 06:52:13 51°13.995 2°55.51 6.6 347 12.6 101880 40
2009-09-18 06:52:18 51°14.005 2°55.502 6.6 356 12.7 101880 40
2009-09-18 06:52:22 51°14.014 2°55.496 4.6 2 12.7 101880 40
2009-09-18 06:52:27 51°14.024 2°55.488 4.9 359 12.6 101880 40
2009-09-18 06:52:33 51°14.037 2°55.478 4.2 1 12.6 101880 40
2009-09-18 06:52:37 51°14.045 2°55.471 4.6 357 12.7 101870 39
2009-09-18 06:52:42 51°14.056 2°55.463 4.4 354 12.7 101870 39
2009-09-18 06:52:48 51°14.068 2°55.453 5.5 358 12.7 101880 40
2009-09-18 06:52:53 51°14.079 2°55.445 4.4 355 12.7 101880 40
2009-09-18 06:52:57 51°14.087 2°55.438 4.2 357 12.7 101880 39
2009-09-18 06:53:02 51°14.097 2°55.43 4.4 350 12.7 101880 39
2009-09-18 06:53:08 51°14.109 2°55.42 4.9 357 12.7 101880 40
2009-09-18 06:53:13 51°14.12 2°55.411 4.4 355 12.7 101880 40
2009-09-18 06:53:17 51°14.128 2°55.404 5.1 348 12.7 101880 40
2009-09-18 06:53:22 51°14.138 2°55.395 5.6 356 12.7 101880 40
2009-09-18 06:53:27 51°14.148 2°55.386 4.7 355 12.7 101880 39
2009-09-18 06:53:33 51°14.16 2°55.375 5.2 349 12.7 101880 39
2009-09-18 06:53:38 51°14.17 2°55.365 5.7 358 12.7 101880 39
2009-09-18 06:53:42 51°14.178 2°55.357 4.4 357 12.7 101880 39
2009-09-18 06:53:48 51°14.189 2°55.345 5.7 359 12.7 101880 38
2009-09-18 06:53:53 51°14.199 2°55.334 3.6 354 12.7 101880 38
2009-09-18 06:53:58 51°14.208 2°55.321 6.1 7 12.7 101880 40
2009-09-18 06:54:02 51°14.215 2°55.311 5.2 13 12.7 101880 40
2009-09-18 06:54:08 51°14.226 2°55.296 4.4 -999 12.7 101880 40
2009-09-18 06:54:13 51°14.235 2°55.282 4 10 12.7 101880 40
2009-09-18 06:54:18 51°14.244 2°55.268 4.4 356 12.7 101880 39
2009-09-18 06:54:22 51°14.251 2°55.257 4.4 3 12.7 101880 39
2009-09-18 06:54:27 51°14.26 2°55.242 5 8 12.7 101880 40
2009-09-18 06:54:33 51°14.27 2°55.223 5.8 12 12.7 101880 40
2009-09-18 06:54:37 51°14.277 2°55.211 4.4 9 12.7 101880 39
2009-09-18 06:54:42 51°14.286 2°55.194 5.2 16 12.7 101880 39
2009-09-18 06:54:47 51°14.294 2°55.177 4.8 12 12.8 101880 38
2009-09-18 06:54:53 51°14.304 2°55.156 4.4 8 12.8 101880 38
2009-09-18 06:54:57 51°14.311 2°55.142 4.7 14 12.8 101880 38
2009-09-18 06:55:02 51°14.319 2°55.124 4.9 8 12.8 101880 38
2009-09-18 06:55:08 51°14.328 2°55.102 4.1 9 12.8 101880 40
2009-09-18 06:55:13 51°14.336 2°55.083 5.2 14 12.8 101880 40
2009-09-18 06:55:17 51°14.342 2°55.068 4.7 19 12.8 101870 40
2009-09-18 06:55:22 51°14.349 2°55.048 4.7 14 12.8 101870 40
2009-09-18 06:55:27 51°14.355 2°55.028 4.6 11 12.9 101880 40
2009-09-18 06:55:33 51°14.364 2°55.005 4.6 7 12.9 101880 40
2009-09-18 06:55:37 51°14.37 2°54.989 5.4 7 12.9 101870 39
2009-09-18 06:55:42 51°14.378 2°54.971 4.7 5 12.9 101870 39
2009-09-18 06:55:48 51°14.388 2°54.948 5.3 12 12.9 101880 39
2009-09-18 06:55:53 51°14.398 2°54.929 5.9 8 12.9 101880 39
2009-09-18 06:55:57 51°14.405 2°54.914 5.6 6 12.9 101870 39
2009-09-18 06:56:02 51°14.415 2°54.896 7.1 10 12.9 101870 39
2009-09-18 06:56:07 51°14.424 2°54.877 6.3 9 13 101870 41
2009-09-18 06:56:13 51°14.436 2°54.855 6.2 10 13 101870 41
2009-09-18 06:56:17 51°14.445 2°54.841 5.4 7 13 101880 39
2009-09-18 06:56:22 51°14.454 2°54.822 6.8 7 13 101880 39
2009-09-18 06:56:27 51°14.465 2°54.805 5.9 3 13 101870 40
2009-09-18 06:56:32 51°14.476 2°54.788 7.2 2 13 101870 40
2009-09-18 06:56:38 51°14.49 2°54.77 7.5 359 13 101880 41
2009-09-18 06:56:42 51°14.5 2°54.758 6.8 2 13 101880 41
2009-09-18 06:56:47 51°14.511 2°54.743 6.3 5 13 101870 39
2009-09-18 06:56:53 51°14.526 2°54.725 5.9 5 13 101870 39
2009-09-18 06:56:58 51°14.537 2°54.708 6.8 6 13 101870 38
2009-09-18 06:57:02 51°14.546 2°54.694 6.3 4 13 101870 38
2009-09-18 06:57:08 51°14.559 2°54.672 6.5 5 13.1 101870 41
2009-09-18 06:57:13 51°14.569 2°54.653 5.6 8 13.1 101870 41
2009-09-18 06:57:17 51°14.577 2°54.638 7 7 13.1 101870 39
2009-09-18 06:57:23 51°14.588 2°54.614 7.1 7 13.1 101870 39
2009-09-18 06:57:28 51°14.598 2°54.593 6.7 11 13.1 101870 38
2009-09-18 06:57:33 51°14.607 2°54.572 5.4 6 13.1 101870 38
2009-09-18 06:57:38 51°14.616 2°54.551 6.3 8 13.2 101870 39
2009-09-18 06:57:43 51°14.624 2°54.529 5.7 10 13.2 101870 39
2009-09-18 06:57:48 51°14.633 2°54.507 7.2 8 13.2 101870 38
2009-09-18 06:57:54 51°14.643 2°54.481 6.6 8 13.2 101870 38
2009-09-18 06:57:58 51°14.65 2°54.464 7.1 10 13.2 101870 40
2009-09-18 06:58:03 51°14.659 2°54.443 6.6 12 13.2 101870 40
2009-09-18 06:58:08 51°14.667 2°54.421 5.9 11 13.2 101880 41
2009-09-18 06:58:13 51°14.676 2°54.399 6 17 13.2 101880 41
2009-09-18 06:58:18 51°14.684 2°54.377 6.3 12 13.2 101870 39
2009-09-18 06:58:23 51°14.692 2°54.355 6.4 12 13.2 101870 39
2009-09-18 06:58:28 51°14.7 2°54.333 6.4 9 13.2 101880 38
2009-09-18 06:58:33 51°14.709 2°54.311 7 13 13.2 101880 38
2009-09-18 06:58:38 51°14.717 2°54.289 5.5 14 13.2 101880 40
2009-09-18 06:58:43 51°14.724 2°54.266 3.3 15 13.2 101880 40
2009-09-18 06:58:48 51°14.733 2°54.244 6.3 16 13.3 101870 40
2009-09-18 06:58:53 51°14.741 2°54.222 6.5 11 13.3 101870 40
2009-09-18 06:58:58 51°14.749 2°54.2 5.7 17 13.3 101880 39
2009-09-18 06:59:03 51°14.757 2°54.178 6.2 19 13.3 101880 39
2009-09-18 06:59:07 51°14.763 2°54.161 5.6 17 13.3 101880 38
2009-09-18 06:59:12 51°14.771 2°54.138 7.7 12 13.3 101880 38
2009-09-18 06:59:17 51°14.779 2°54.117 6.1 15 13.3 101880 38
2009-09-18 06:59:23 51°14.789 2°54.09 6.5 15 13.3 101880 38
2009-09-18 06:59:27 51°14.795 2°54.072 6.8 15 13.4 101890 39
2009-09-18 06:59:33 51°14.805 2°54.046 6.3 11 13.4 101890 39
2009-09-18 06:59:38 51°14.812 2°54.024 8.1 12 13.4 101880 40
2009-09-18 06:59:43 51°14.82 2°54.001 7.8 13 13.4 101880 40
2009-09-18 06:59:47 51°14.826 2°53.983 7.8 15 13.5 101880 40
2009-09-18 06:59:52 51°14.834 2°53.961 6.7 15 13.5 101880 40
2009-09-18 06:59:58 51°14.843 2°53.934 7.5 14 13.4 101880 40
2009-09-18 07:00:03 51°14.851 2°53.911 7 17 13.4 101880 40
2009-09-18 07:00:08 51°14.859 2°53.889 6.1 7 13.5 101880 37
2009-09-18 07:00:13 51°14.866 2°53.866 7.6 16 13.5 101880 37
2009-09-18 07:00:18 51°14.874 2°53.844 7.3 15 13.5 101870 39
2009-09-18 07:00:23 51°14.882 2°53.823 6.7 11 13.5 101870 39
2009-09-18 07:00:28 51°14.891 2°53.801 6.6 14 13.5 101870 39
2009-09-18 07:00:33 51°14.899 2°53.779 7.8 18 13.5 101870 39
2009-09-18 07:00:38 51°14.907 2°53.758 6.6 14 13.5 101880 38
2009-09-18 07:00:43 51°14.916 2°53.736 6.8 15 13.5 101880 38
2009-09-18 07:00:48 51°14.924 2°53.715 6.9 16 13.5 101870 38
2009-09-18 07:00:53 51°14.932 2°53.693 5.6 9 13.5 101870 38
2009-09-18 07:00:58 51°14.94 2°53.671 7.6 13 13.5 101880 39
2009-09-18 07:01:03 51°14.948 2°53.649 8.2 15 13.5 101880 39
2009-09-18 07:01:08 51°14.956 2°53.628 7.9 14 13.5 101870 40
2009-09-18 07:01:13 51°14.964 2°53.606 6.8 20 13.5 101870 40
2009-09-18 07:01:18 51°14.972 2°53.584 7.2 19 13.6 101870 39
2009-09-18 07:01:23 51°14.98 2°53.563 6.1 17 13.6 101870 39
2009-09-18 07:01:28 51°14.988 2°53.541 6 12 13.6 101870 38
2009-09-18 07:01:33 51°14.997 2°53.52 6.4 12 13.6 101870 38
2009-09-18 07:01:38 51°15.004 2°53.498 9.3 11 13.6 101870 38
2009-09-18 07:01:43 51°15.012 2°53.476 7.9 12 13.6 101870 38
2009-09-18 07:01:48 51°15.021 2°53.455 6.9 15 13.6 101870 39
2009-09-18 07:01:53 51°15.029 2°53.433 6.9 17 13.6 101870 39
2009-09-18 07:01:58 51°15.036 2°53.411 9.5 17 13.7 101880 39
2009-09-18 07:02:03 51°15.044 2°53.388 7.8 18 13.7 101880 39
2009-09-18 07:02:08 51°15.052 2°53.366 8.3 20 13.7 101870 39
2009-09-18 07:02:13 51°15.059 2°53.344 8.6 17 13.7 101870 39
2009-09-18 07:02:18 51°15.067 2°53.322 8.3 15 13.8 101870 39
2009-09-18 07:02:23 51°15.075 2°53.3 8.7 18 13.8 101870 39
2009-09-18 07:02:28 51°15.083 2°53.277 7.6 19 13.8 101860 38
2009-09-18 07:02:33 51°15.09 2°53.255 6.6 17 13.8 101860 38
2009-09-18 07:02:38 51°15.098 2°53.233 8 18 13.8 101870 38
2009-09-18 07:02:43 51°15.106 2°53.211 7.5 19 13.8 101870 38
2009-09-18 07:02:48 51°15.114 2°53.188 6.8 15 13.7 101880 36
2009-09-18 07:02:53 51°15.122 2°53.166 6.1 18 13.7 101880 36
2009-09-18 07:02:58 51°15.129 2°53.145 7.1 13 13.7 101880 39
2009-09-18 07:03:03 51°15.137 2°53.123 7.8 15 13.7 101880 39
2009-09-18 07:03:08 51°15.145 2°53.1 7.3 18 13.7 101870 39
2009-09-18 07:03:13 51°15.153 2°53.078 7.3 19 13.7 101870 39
2009-09-18 07:03:18 51°15.161 2°53.056 7 18 13.8 101870 39
2009-09-18 07:03:23 51°15.168 2°53.033 7.3 17 13.8 101870 39
2009-09-18 07:03:28 51°15.176 2°53.01 7.5 16 13.8 101880 39
2009-09-18 07:03:33 51°15.184 2°52.988 7 12 13.8 101880 39
2009-09-18 07:03:38 51°15.192 2°52.966 7.1 16 13.8 101870 38
2009-09-18 07:03:43 51°15.199 2°52.943 8.7 14 13.8 101870 38
2009-09-18 07:03:48 51°15.207 2°52.921 7.1 19 13.9 101870 39
2009-09-18 07:03:53 51°15.215 2°52.899 7.7 15 13.9 101870 39
2009-09-18 07:03:58 51°15.223 2°52.877 8.8 17 13.8 101870 38
2009-09-18 07:04:03 51°15.231 2°52.854 9 20 13.8 101870 38
2009-09-18 07:04:08 51°15.239 2°52.833 7.4 17 13.9 101870 39
2009-09-18 07:04:13 51°15.247 2°52.811 7.5 17 13.9 101870 39
2009-09-18 07:04:18 51°15.255 2°52.789 6.5 17 13.9 101870 38
2009-09-18 07:04:23 51°15.263 2°52.767 7 16 13.9 101870 38
2009-09-18 07:04:28 51°15.272 2°52.745 6.8 15 13.9 101870 39
2009-09-18 07:04:33 51°15.28 2°52.723 6.8 16 13.9 101870 39
2009-09-18 07:04:38 51°15.287 2°52.7 6.8 19 13.9 101870 39
2009-09-18 07:04:43 51°15.295 2°52.679 7.9 16 13.9 101870 39
2009-09-18 07:04:48 51°15.303 2°52.656 7.9 22 14 101870 39
2009-09-18 07:04:53 51°15.311 2°52.634 6.7 19 14 101870 39
2009-09-18 07:04:58 51°15.32 2°52.612 6.6 14 14 101880 37
2009-09-18 07:05:03 51°15.328 2°52.59 5.7 17 14 101880 37
2009-09-18 07:05:08 51°15.336 2°52.568 6.7 17 14 101870 39
2009-09-18 07:05:13 51°15.344 2°52.546 6.9 16 14 101870 39
2009-09-18 07:05:18 51°15.352 2°52.524 5.9 14 14 101870 39
2009-09-18 07:05:23 51°15.36 2°52.502 6.3 14 14 101870 39
2009-09-18 07:05:28 51°15.368 2°52.479 7.1 10 14 101870 37
2009-09-18 07:05:33 51°15.376 2°52.457 7.9 12 14 101870 37
2009-09-18 07:05:38 51°15.384 2°52.434 6.6 8 14.1 101870 39
2009-09-18 07:05:43 51°15.392 2°52.412 7.9 11 14.1 101870 39
2009-09-18 07:05:48 51°15.399 2°52.389 5.8 13 14.1 101870 40
2009-09-18 07:05:53 51°15.407 2°52.367 6.5 13 14.1 101870 40
2009-09-18 07:05:58 51°15.415 2°52.345 7.7 11 14.2 101870 39
2009-09-18 07:06:03 51°15.423 2°52.323 8 13 14.2 101870 39
2009-09-18 07:06:08 51°15.43 2°52.3 7.6 15 14.2 101880 39
2009-09-18 07:06:13 51°15.439 2°52.278 8.9 14 14.2 101880 39
2009-09-18 07:06:18 51°15.447 2°52.256 7.9 9 14.2 101880 40
2009-09-18 07:06:23 51°15.455 2°52.233 7.4 10 14.2 101880 40
2009-09-18 07:06:28 51°15.462 2°52.209 8 16 14.2 101870 40
2009-09-18 07:06:33 51°15.47 2°52.187 7.8 15 14.2 101870 40
2009-09-18 07:06:38 51°15.477 2°52.163 8 17 14.2 101870 38
2009-09-18 07:06:43 51°15.485 2°52.14 6.8 13 14.2 101870 38
2009-09-18 07:06:48 51°15.492 2°52.117 7.4 17 14.2 101870 38
2009-09-18 07:06:53 51°15.5 2°52.093 8.3 13 14.2 101870 38
2009-09-18 07:06:58 51°15.507 2°52.07 7.5 17 14.2 101870 39
2009-09-18 07:07:03 51°15.515 2°52.046 8 17 14.2 101870 39
2009-09-18 07:07:08 51°15.523 2°52.023 7.2 19 14.2 101870 39
2009-09-18 07:07:13 51°15.531 2°52 7.7 17 14.2 101870 39
2009-09-18 07:07:18 51°15.539 2°51.977 7.4 19 14.1 101870 38
2009-09-18 07:07:23 51°15.546 2°51.954 7.6 15 14.1 101870 38
2009-09-18 07:07:28 51°15.555 2°51.932 7.4 18 14.1 101860 39
2009-09-18 07:07:33 51°15.562 2°51.909 7.4 19 14.1 101860 39
2009-09-18 07:07:38 51°15.571 2°51.887 6.3 22 14.1 101870 38
2009-09-18 07:07:43 51°15.579 2°51.863 7.5 21 14.1 101870 38
2009-09-18 07:07:48 51°15.587 2°51.841 7.3 17 14.1 101870 39
2009-09-18 07:07:53 51°15.595 2°51.819 6.8 20 14.1 101870 39
2009-09-18 07:07:58 51°15.603 2°51.797 7 17 14.1 101870 38
2009-09-18 07:08:03 51°15.611 2°51.774 7.8 17 14.1 101870 38
2009-09-18 07:08:08 51°15.619 2°51.753 8.7 16 14.1 101870 36
2009-09-18 07:08:13 51°15.627 2°51.731 7.4 16 14.1 101870 36
2009-09-18 07:08:18 51°15.635 2°51.708 7.2 16 14.1 101870 37
2009-09-18 07:08:23 51°15.643 2°51.687 7.6 17 14.1 101870 37
2009-09-18 07:08:28 51°15.651 2°51.664 8.8 18 14.2 101870 39
2009-09-18 07:08:33 51°15.659 2°51.642 8 19 14.2 101870 39
2009-09-18 07:08:38 51°15.667 2°51.62 7.9 19 14.2 101860 38
2009-09-18 07:08:43 51°15.675 2°51.598 7.4 17 14.2 101860 38
2009-09-18 07:08:48 51°15.683 2°51.576 7.8 9 14.2 101870 38
2009-09-18 07:08:52 51°15.689 2°51.558 7.2 19 14.2 101870 38
2009-09-18 07:08:58 51°15.699 2°51.532 7.8 20 14.2 101860 39
2009-09-18 07:09:03 51°15.707 2°51.51 6.8 20 14.2 101860 39
2009-09-18 07:09:08 51°15.715 2°51.488 8.1 19 14.2 101860 38
2009-09-18 07:09:13 51°15.723 2°51.465 6.9 20 14.2 101860 38
2009-09-18 07:09:18 51°15.731 2°51.444 7 15 14.3 101880 39
2009-09-18 07:09:23 51°15.738 2°51.421 7.9 12 14.3 101880 39
2009-09-18 07:09:28 51°15.746 2°51.399 9 12 14.2 101860 37
2009-09-18 07:09:33 51°15.755 2°51.377 7.3 13 14.2 101860 37
2009-09-18 07:09:38 51°15.763 2°51.355 7.7 16 14.3 101870 38
2009-09-18 07:09:43 51°15.771 2°51.333 7.1 17 14.3 101870 38
2009-09-18 07:09:48 51°15.779 2°51.311 7.6 13 14.3 101870 40
2009-09-18 07:09:53 51°15.787 2°51.289 8.3 14 14.3 101870 40
2009-09-18 07:09:58 51°15.795 2°51.267 8 20 14.3 101870 38
2009-09-18 07:10:03 51°15.804 2°51.245 7.9 20 14.3 101870 38
2009-09-18 07:10:08 51°15.812 2°51.223 7.1 15 14.4 101870 38
2009-09-18 07:10:13 51°15.819 2°51.201 7.5 17 14.4 101870 38
2009-09-18 07:10:18 51°15.828 2°51.179 8 18 14.4 101870 37
2009-09-18 07:10:23 51°15.835 2°51.156 7.8 20 14.4 101870 37
2009-09-18 07:10:28 51°15.843 2°51.134 7.6 18 14.4 101870 40
2009-09-18 07:10:33 51°15.851 2°51.112 7.5 16 14.4 101870 40
2009-09-18 07:10:38 51°15.859 2°51.089 7.9 19 14.4 101870 38
2009-09-18 07:10:43 51°15.867 2°51.068 7.7 21 14.4 101870 38
2009-09-18 07:10:48 51°15.875 2°51.046 7.9 18 14.4 101870 37
2009-09-18 07:10:53 51°15.884 2°51.025 7 20 14.4 101870 37
2009-09-18 07:10:58 51°15.892 2°51.003 7 19 14.4 101860 38
2009-09-18 07:11:03 51°15.9 2°50.981 7.9 14 14.4 101860 38
2009-09-18 07:11:08 51°15.908 2°50.96 7.1 17 14.4 101870 39
2009-09-18 07:11:13 51°15.916 2°50.939 6.9 16 14.4 101870 39
2009-09-18 07:11:18 51°15.924 2°50.917 7.6 16 14.4 101870 40
2009-09-18 07:11:23 51°15.932 2°50.895 7.4 16 14.4 101870 40
2009-09-18 07:11:28 51°15.941 2°50.875 7.2 14 14.5 101880 40
2009-09-18 07:11:32 51°15.948 2°50.858 8.4 16 14.5 101880 40
2009-09-18 07:11:38 51°15.959 2°50.834 7.5 15 14.5 101870 40
2009-09-18 07:11:43 51°15.968 2°50.814 7.2 18 14.5 101870 40
2009-09-18 07:11:48 51°15.977 2°50.794 6.3 16 14.5 101860 39
2009-09-18 07:11:53 51°15.986 2°50.774 6.6 17 14.5 101860 39
2009-09-18 07:11:58 51°15.995 2°50.753 7.6 16 14.5 101870 39
2009-09-18 07:12:03 51°16.004 2°50.733 7.4 11 14.5 101870 39
2009-09-18 07:12:08 51°16.013 2°50.713 7.7 15 14.5 101880 40
2009-09-18 07:12:13 51°16.022 2°50.693 7.7 11 14.5 101880 40
2009-09-18 07:12:18 51°16.032 2°50.673 7.2 16 14.5 101870 39
2009-09-18 07:12:23 51°16.041 2°50.653 8.5 16 14.5 101870 39
2009-09-18 07:12:28 51°16.05 2°50.634 7.9 18 14.6 101870 39
2009-09-18 07:12:33 51°16.059 2°50.614 8.5 19 14.6 101870 39
2009-09-18 07:12:38 51°16.069 2°50.595 6.7 19 14.6 101870 40
2009-09-18 07:12:43 51°16.078 2°50.575 7.4 14 14.6 101870 40
2009-09-18 07:12:48 51°16.087 2°50.556 8.7 13 14.6 101870 39
2009-09-18 07:12:52 51°16.095 2°50.541 8.5 10 14.6 101870 39
2009-09-18 07:12:58 51°16.106 2°50.518 9.2 10 14.6 101870 38
2009-09-18 07:13:03 51°16.116 2°50.5 8 8 14.6 101870 38
2009-09-18 07:13:08 51°16.126 2°50.481 6.3 4 14.6 101870 41
2009-09-18 07:13:13 51°16.136 2°50.464 9.3 12 14.6 101870 41
2009-09-18 07:13:18 51°16.146 2°50.447 8.7 6 14.6 101870 40
2009-09-18 07:13:23 51°16.156 2°50.429 10.2 10 14.6 101870 40
2009-09-18 07:13:28 51°16.167 2°50.412 9.9 9 14.7 101870 39
2009-09-18 07:13:33 51°16.177 2°50.394 9.9 9 14.7 101870 39
2009-09-18 07:13:38 51°16.188 2°50.377 9.1 10 14.6 101860 39
2009-09-18 07:13:43 51°16.198 2°50.36 8.9 10 14.6 101860 39
2009-09-18 07:13:48 51°16.209 2°50.342 8.9 10 14.7 101870 40
2009-09-18 07:13:53 51°16.219 2°50.325 8.4 9 14.7 101870 40
2009-09-18 07:13:58 51°16.23 2°50.308 8 9 14.6 101860 39
2009-09-18 07:14:03 51°16.24 2°50.291 9.3 11 14.6 101860 39
2009-09-18 07:14:08 51°16.251 2°50.274 9.9 11 14.6 101860 40
2009-09-18 07:14:13 51°16.262 2°50.257 8.9 10 14.6 101860 40
2009-09-18 07:14:18 51°16.273 2°50.241 9.9 11 14.6 101870 39
2009-09-18 07:14:23 51°16.284 2°50.224 6.5 6 14.6 101870 39
2009-09-18 07:14:28 51°16.295 2°50.208 9 8 14.6 101870 40
2009-09-18 07:14:33 51°16.306 2°50.192 8.6 7 14.6 101870 40
2009-09-18 07:14:38 51°16.317 2°50.176 9.6 9 14.6 101870 40
2009-09-18 07:14:43 51°16.328 2°50.16 9.8 11 14.6 101870 40
2009-09-18 07:14:48 51°16.339 2°50.144 6.5 6 14.6 101870 39
2009-09-18 07:14:53 51°16.35 2°50.128 10.8 11 14.6 101870 39
2009-09-18 07:14:58 51°16.362 2°50.113 9.9 10 14.6 101870 39
2009-09-18 07:15:03 51°16.374 2°50.098 10.4 10 14.6 101870 39
2009-09-18 07:15:08 51°16.386 2°50.084 10.5 8 14.6 101860 39
2009-09-18 07:15:13 51°16.397 2°50.069 7.5 8 14.6 101860 39
2009-09-18 07:15:18 51°16.409 2°50.056 9.7 6 14.7 101860 39
2009-09-18 07:15:23 51°16.421 2°50.042 8.5 6 14.7 101860 39
2009-09-18 07:15:28 51°16.434 2°50.029 8.7 6 14.6 101860 40
2009-09-18 07:15:33 51°16.446 2°50.015 9.7 7 14.6 101860 40
2009-09-18 07:15:38 51°16.458 2°50.003 9 7 14.7 101860 39
2009-09-18 07:15:43 51°16.47 2°49.989 10.1 8 14.7 101860 39
2009-09-18 07:15:48 51°16.482 2°49.976 10.3 3 14.6 101860 40
2009-09-18 07:15:53 51°16.495 2°49.964 8.2 4 14.6 101860 40
2009-09-18 07:15:58 51°16.507 2°49.951 8.8 5 14.6 101850 40
2009-09-18 07:16:03 51°16.519 2°49.938 9.5 4 14.6 101850 40
2009-09-18 07:16:08 51°16.532 2°49.925 9.7 5 14.6 101860 38
2009-09-18 07:16:13 51°16.544 2°49.912 8.2 5 14.6 101860 38
2009-09-18 07:16:18 51°16.557 2°49.899 8.3 6 14.6 101860 40
2009-09-18 07:16:23 51°16.569 2°49.885 9.8 7 14.6 101860 40
2009-09-18 07:16:28 51°16.581 2°49.872 9.8 6 14.7 101850 40
2009-09-18 07:16:33 51°16.593 2°49.859 8.6 5 14.7 101850 40
2009-09-18 07:16:38 51°16.605 2°49.845 10.1 3 14.7 101860 41
2009-09-18 07:16:43 51°16.617 2°49.832 9.3 4 14.7 101860 41
2009-09-18 07:16:48 51°16.629 2°49.818 8.4 2 14.7 101850 41
2009-09-18 07:16:53 51°16.642 2°49.805 9 4 14.7 101850 41
2009-09-18 07:16:58 51°16.655 2°49.792 10.5 5 14.7 101850 40
2009-09-18 07:17:03 51°16.668 2°49.779 9.9 4 14.7 101850 40
2009-09-18 07:17:08 51°16.68 2°49.766 10.3 5 14.7 101850 40
2009-09-18 07:17:13 51°16.693 2°49.754 10 5 14.7 101850 40
2009-09-18 07:17:18 51°16.705 2°49.742 10.2 6 14.7 101850 40
2009-09-18 07:17:23 51°16.718 2°49.729 10.8 6 14.7 101850 40
2009-09-18 07:17:28 51°16.73 2°49.717 11 6 14.6 101850 40
2009-09-18 07:17:33 51°16.742 2°49.705 9.9 6 14.6 101850 40
2009-09-18 07:17:38 51°16.755 2°49.693 9.1 7 14.6 101850 40
2009-09-18 07:17:43 51°16.767 2°49.681 8.6 8 14.6 101850 40
2009-09-18 07:17:48 51°16.779 2°49.669 9 2 14.6 101850 39
2009-09-18 07:17:53 51°16.791 2°49.657 9.8 360 14.6 101850 39
2009-09-18 07:17:58 51°16.804 2°49.646 10.4 3 14.6 101850 40
2009-09-18 07:18:03 51°16.816 2°49.635 8.8 3 14.6 101850 40
2009-09-18 07:18:08 51°16.828 2°49.622 11.1 4 14.6 101850 39
2009-09-18 07:18:13 51°16.84 2°49.611 10.9 2 14.6 101850 39
2009-09-18 07:18:18 51°16.852 2°49.599 9.7 4 14.6 101860 40
2009-09-18 07:18:23 51°16.864 2°49.587 9.8 3 14.6 101860 40
2009-09-18 07:18:28 51°16.876 2°49.576 10.7 1 14.6 101850 40
2009-09-18 07:18:33 51°16.888 2°49.566 10.6 1 14.6 101850 40
2009-09-18 07:18:38 51°16.9 2°49.555 11.4 5 14.6 101850 41
2009-09-18 07:18:43 51°16.912 2°49.545 8.6 4 14.6 101850 41
2009-09-18 07:18:48 51°16.924 2°49.536 9.2 4 14.6 101850 39
2009-09-18 07:18:53 51°16.936 2°49.527 8.9 1 14.6 101850 39
2009-09-18 07:18:58 51°16.949 2°49.518 9.7 5 14.6 101850 40
2009-09-18 07:19:03 51°16.961 2°49.508 9.9 7 14.6 101850 40
2009-09-18 07:19:08 51°16.973 2°49.5 10.9 5 14.6 101850 40
2009-09-18 07:19:13 51°16.986 2°49.491 9.2 5 14.6 101850 40
2009-09-18 07:19:18 51°16.998 2°49.482 9 1 14.5 101850 39
2009-09-18 07:19:23 51°17.01 2°49.472 10.7 1 14.5 101850 39
2009-09-18 07:19:28 51°17.022 2°49.463 9.1 3 14.6 101850 39
2009-09-18 07:19:33 51°17.034 2°49.453 9.5 3 14.6 101850 39
2009-09-18 07:19:38 51°17.046 2°49.443 9.7 4 14.6 101850 40
2009-09-18 07:19:43 51°17.059 2°49.433 10.2 5 14.6 101850 40
2009-09-18 07:19:48 51°17.071 2°49.422 8.9 1 14.6 101850 40
2009-09-18 07:19:53 51°17.083 2°49.412 9.8 2 14.6 101850 40
2009-09-18 07:19:58 51°17.095 2°49.401 10.7 1 14.6 101860 41
2009-09-18 07:20:03 51°17.107 2°49.39 11.6 357 14.6 101860 41
2009-09-18 07:20:08 51°17.119 2°49.38 11.4 359 14.6 101850 41
2009-09-18 07:20:13 51°17.132 2°49.371 11.2 360 14.6 101850 41
2009-09-18 07:20:18 51°17.144 2°49.36 10.9 1 14.6 101850 41
2009-09-18 07:20:23 51°17.156 2°49.35 10.2 2 14.6 101850 41
2009-09-18 07:20:28 51°17.169 2°49.34 9.1 -999 14.6 101850 40
2009-09-18 07:20:33 51°17.181 2°49.329 10.8 1 14.6 101850 40
2009-09-18 07:20:38 51°17.193 2°49.319 8.9 4 14.6 101850 40
2009-09-18 07:20:43 51°17.205 2°49.309 9.1 4 14.6 101850 40
2009-09-18 07:20:48 51°17.218 2°49.299 10.1 1 14.6 101840 40
2009-09-18 07:20:53 51°17.23 2°49.289 9.6 -999 14.6 101840 40
2009-09-18 07:20:58 51°17.243 2°49.278 9.6 4 14.6 101850 39
2009-09-18 07:21:03 51°17.255 2°49.268 8.6 -999 14.6 101850 39
2009-09-18 07:21:08 51°17.267 2°49.257 9.9 3 14.6 101850 41
2009-09-18 07:21:13 51°17.28 2°49.247 9.8 1 14.6 101850 41
2009-09-18 07:21:18 51°17.292 2°49.236 10.4 4 14.6 101850 41
2009-09-18 07:21:23 51°17.304 2°49.225 11.2 1 14.6 101850 41
2009-09-18 07:21:28 51°17.317 2°49.214 9.5 1 14.5 101850 39
2009-09-18 07:21:33 51°17.329 2°49.203 9.7 3 14.5 101850 39
2009-09-18 07:21:38 51°17.342 2°49.193 9.4 3 14.5 101860 41
2009-09-18 07:21:43 51°17.354 2°49.182 11.1 1 14.5 101860 41
2009-09-18 07:21:48 51°17.367 2°49.172 10.1 2 14.5 101850 40
2009-09-18 07:21:53 51°17.379 2°49.161 9.8 2 14.5 101850 40
2009-09-18 07:21:58 51°17.392 2°49.15 9.5 2 14.5 101850 40
2009-09-18 07:22:03 51°17.405 2°49.139 9 4 14.5 101850 40
2009-09-18 07:22:08 51°17.417 2°49.128 9.8 4 14.5 101850 41
2009-09-18 07:22:13 51°17.43 2°49.117 10.2 3 14.5 101850 41
2009-09-18 07:22:18 51°17.442 2°49.107 8.2 1 14.5 101850 41
2009-09-18 07:22:23 51°17.455 2°49.095 10.3 2 14.5 101850 41
2009-09-18 07:22:28 51°17.467 2°49.085 9.7 4 14.5 101840 40
2009-09-18 07:22:33 51°17.48 2°49.074 9 1 14.5 101840 40
2009-09-18 07:22:38 51°17.492 2°49.063 9.2 4 14.5 101850 40
2009-09-18 07:22:43 51°17.505 2°49.052 8.2 5 14.5 101850 40
2009-09-18 07:22:48 51°17.517 2°49.041 8.9 4 14.5 101850 41
2009-09-18 07:22:53 51°17.53 2°49.029 10.5 4 14.5 101850 41
2009-09-18 07:22:58 51°17.543 2°49.018 9.6 -999 14.5 101840 40
2009-09-18 07:23:03 51°17.555 2°49.007 10.5 4 14.5 101840 40
2009-09-18 07:23:08 51°17.568 2°48.996 10.1 -999 14.4 101840 40
2009-09-18 07:23:13 51°17.58 2°48.985 10.2 2 14.4 101840 40
2009-09-18 07:23:18 51°17.592 2°48.974 11 360 14.4 101850 40
2009-09-18 07:23:23 51°17.604 2°48.963 12 1 14.4 101850 40
2009-09-18 07:23:28 51°17.616 2°48.952 10.7 3 14.5 101850 41
2009-09-18 07:23:33 51°17.629 2°48.941 10.5 4 14.5 101850 41
2009-09-18 07:23:38 51°17.641 2°48.93 10.8 2 14.4 101850 40
2009-09-18 07:23:43 51°17.654 2°48.919 11.6 -999 14.4 101850 40
2009-09-18 07:23:48 51°17.667 2°48.909 9.6 360 14.5 101850 41
2009-09-18 07:23:52 51°17.677 2°48.9 11.1 1 14.5 101850 41
2009-09-18 07:23:58 51°17.692 2°48.888 11.2 2 14.5 101850 39
2009-09-18 07:24:03 51°17.705 2°48.876 10.6 2 14.5 101850 39
2009-09-18 07:24:08 51°17.718 2°48.866 10.5 2 14.4 101840 39
2009-09-18 07:24:13 51°17.731 2°48.855 11.6 1 14.4 101840 39
2009-09-18 07:24:18 51°17.744 2°48.845 10.1 2 14.4 101850 40
2009-09-18 07:24:23 51°17.757 2°48.834 10.3 4 14.4 101850 40
2009-09-18 07:24:28 51°17.769 2°48.824 8.9 3 14.4 101850 39
2009-09-18 07:24:33 51°17.782 2°48.813 9.5 4 14.4 101850 39
2009-09-18 07:24:38 51°17.795 2°48.803 9.7 3 14.4 101840 40
2009-09-18 07:24:43 51°17.808 2°48.792 8.9 5 14.4 101840 40
2009-09-18 07:24:48 51°17.821 2°48.781 9.5 1 14.4 101850 40
2009-09-18 07:24:53 51°17.834 2°48.771 10.3 1 14.4 101850 40
2009-09-18 07:24:58 51°17.847 2°48.761 11.3 -999 14.4 101850 39
2009-09-18 07:25:03 51°17.86 2°48.75 9.5 2 14.4 101850 39
2009-09-18 07:25:08 51°17.873 2°48.74 10.2 2 14.5 101830 41
2009-09-18 07:25:13 51°17.886 2°48.729 9.8 1 14.5 101830 41
2009-09-18 07:25:18 51°17.899 2°48.719 11 359 14.5 101840 41
2009-09-18 07:25:23 51°17.912 2°48.709 12.2 358 14.5 101840 41
2009-09-18 07:25:28 51°17.925 2°48.699 11.4 357 14.5 101850 40
2009-09-18 07:25:33 51°17.938 2°48.688 10.4 2 14.5 101850 40
2009-09-18 07:25:38 51°17.951 2°48.677 12.2 1 14.6 101850 40
2009-09-18 07:25:43 51°17.964 2°48.667 10.6 357 14.6 101850 40
2009-09-18 07:25:48 51°17.977 2°48.657 10.9 3 14.6 101840 41
2009-09-18 07:25:53 51°17.99 2°48.646 9.2 2 14.6 101840 41
2009-09-18 07:25:58 51°18.002 2°48.635 10.2 4 14.6 101840 41
2009-09-18 07:26:03 51°18.015 2°48.625 9.1 2 14.6 101840 41
2009-09-18 07:26:08 51°18.028 2°48.613 9.3 2 14.6 101830 40
2009-09-18 07:26:13 51°18.041 2°48.602 10.9 3 14.6 101830 40
2009-09-18 07:26:18 51°18.054 2°48.591 10.5 4 14.6 101840 39
2009-09-18 07:26:23 51°18.067 2°48.579 9.9 6 14.6 101840 39
2009-09-18 07:26:28 51°18.08 2°48.567 10.4 2 14.5 101840 40
2009-09-18 07:26:32 51°18.09 2°48.558 10.7 4 14.5 101840 40
2009-09-18 07:26:38 51°18.105 2°48.544 10.7 7 14.5 101840 40
2009-09-18 07:26:43 51°18.119 2°48.532 11.2 5 14.5 101840 40
2009-09-18 07:26:48 51°18.131 2°48.52 10.8 3 14.5 101840 38
2009-09-18 07:26:53 51°18.144 2°48.508 10 4 14.5 101840 38
2009-09-18 07:26:58 51°18.157 2°48.496 11.5 3 14.5 101850 40
2009-09-18 07:27:03 51°18.17 2°48.484 9.4 3 14.5 101850 40
2009-09-18 07:27:08 51°18.183 2°48.472 9.2 5 14.5 101850 39
2009-09-18 07:27:13 51°18.196 2°48.46 9.5 6 14.5 101850 39
2009-09-18 07:27:18 51°18.209 2°48.448 9.6 5 14.5 101850 40
2009-09-18 07:27:24 51°18.225 2°48.434 11.2 6 14.5 101850 40
2009-09-18 07:27:28 51°18.235 2°48.425 8.6 5 14.5 101850 41
2009-09-18 07:27:33 51°18.248 2°48.413 9.1 3 14.5 101850 41
2009-09-18 07:27:38 51°18.261 2°48.401 10.7 4 14.5 101850 39
2009-09-18 07:27:43 51°18.274 2°48.389 8.8 5 14.5 101850 39
2009-09-18 07:27:48 51°18.287 2°48.378 10.4 3 14.5 101850 40
2009-09-18 07:27:53 51°18.3 2°48.366 12.6 -999 14.5 101850 40
2009-09-18 07:27:58 51°18.313 2°48.354 10.4 3 14.5 101850 40
2009-09-18 07:28:03 51°18.326 2°48.342 11.5 5 14.5 101850 40
2009-09-18 07:28:08 51°18.339 2°48.33 9.8 6 14.6 101850 41
2009-09-18 07:28:13 51°18.353 2°48.318 10.8 5 14.6 101850 41
2009-09-18 07:28:18 51°18.366 2°48.306 11.5 4 14.6 101850 41
2009-09-18 07:28:23 51°18.379 2°48.295 10 4 14.6 101850 41
2009-09-18 07:28:28 51°18.392 2°48.283 11.6 4 14.6 101850 41
2009-09-18 07:28:33 51°18.405 2°48.272 11.2 7 14.6 101850 41
2009-09-18 07:28:38 51°18.418 2°48.26 9.9 7 14.6 101850 40
2009-09-18 07:28:43 51°18.432 2°48.249 10.1 5 14.6 101850 40
2009-09-18 07:28:48 51°18.445 2°48.237 9.1 6 14.5 101840 40
2009-09-18 07:28:53 51°18.458 2°48.225 10.1 1 14.5 101840 40
2009-09-18 07:28:58 51°18.471 2°48.212 9.5 4 14.5 101850 40
2009-09-18 07:29:03 51°18.484 2°48.2 10.5 3 14.5 101850 40
2009-09-18 07:29:08 51°18.496 2°48.187 10.3 6 14.6 101850 40
2009-09-18 07:29:13 51°18.509 2°48.174 10.8 5 14.6 101850 40
2009-09-18 07:29:18 51°18.522 2°48.162 10.3 3 14.6 101840 41
2009-09-18 07:29:23 51°18.534 2°48.148 10.7 1 14.6 101840 41
2009-09-18 07:29:28 51°18.547 2°48.135 9.9 5 14.6 101840 39
2009-09-18 07:29:33 51°18.56 2°48.122 9.9 4 14.6 101840 39
2009-09-18 07:29:38 51°18.572 2°48.109 11.3 5 14.6 101850 39
2009-09-18 07:29:43 51°18.585 2°48.096 10.3 5 14.6 101850 39
2009-09-18 07:29:48 51°18.597 2°48.083 10.8 6 14.6 101840 40
2009-09-18 07:29:53 51°18.61 2°48.069 11.1 5 14.6 101840 40
2009-09-18 07:29:58 51°18.623 2°48.055 9.5 6 14.6 101850 39
2009-09-18 07:30:03 51°18.635 2°48.042 10.2 6 14.6 101850 39
2009-09-18 07:30:08 51°18.647 2°48.028 7.8 6 14.6 101840 40
2009-09-18 07:30:13 51°18.66 2°48.014 10.5 6 14.6 101840 40
2009-09-18 07:30:18 51°18.672 2°48 9.3 5 14.6 101840 40
2009-09-18 07:30:23 51°18.685 2°47.987 9.8 4 14.6 101840 40
2009-09-18 07:30:28 51°18.697 2°47.973 10.4 7 14.6 101840 40
2009-09-18 07:30:33 51°18.709 2°47.959 7.8 8 14.6 101840 40
2009-09-18 07:30:38 51°18.721 2°47.945 9.6 5 14.5 101840 40
2009-09-18 07:30:43 51°18.734 2°47.932 8.8 5 14.5 101840 40
2009-09-18 07:30:48 51°18.746 2°47.918 10.1 5 14.5 101850 39
2009-09-18 07:30:53 51°18.758 2°47.904 9.8 8 14.5 101850 39
2009-09-18 07:30:58 51°18.771 2°47.891 9.7 3 14.5 101840 39
2009-09-18 07:31:03 51°18.783 2°47.876 8.2 5 14.5 101840 39
2009-09-18 07:31:08 51°18.795 2°47.862 9.5 6 14.5 101850 39
2009-09-18 07:31:13 51°18.807 2°47.849 9.8 6 14.5 101850 39
2009-09-18 07:31:18 51°18.819 2°47.835 9 4 14.5 101850 39
2009-09-18 07:31:23 51°18.831 2°47.82 9.4 4 14.5 101850 39
2009-09-18 07:31:28 51°18.843 2°47.807 10 10 14.6 101840 41
2009-09-18 07:31:33 51°18.855 2°47.792 9 6 14.6 101840 41
2009-09-18 07:31:38 51°18.868 2°47.779 9.1 5 14.6 101840 39
2009-09-18 07:31:43 51°18.88 2°47.765 8.2 6 14.6 101840 39
2009-09-18 07:31:48 51°18.892 2°47.75 9.3 5 14.5 101850 39
2009-09-18 07:31:53 51°18.904 2°47.736 8.7 6 14.5 101850 39
2009-09-18 07:31:58 51°18.916 2°47.722 9.1 3 14.5 101850 39
2009-09-18 07:32:03 51°18.929 2°47.708 8.4 3 14.5 101850 39
2009-09-18 07:32:08 51°18.94 2°47.693 8.4 4 14.6 101850 39
2009-09-18 07:32:13 51°18.953 2°47.679 9.6 357 14.6 101850 39
2009-09-18 07:32:18 51°18.965 2°47.664 10.9 4 14.6 101850 40
2009-09-18 07:32:23 51°18.978 2°47.651 8.9 2 14.6 101850 40
2009-09-18 07:32:28 51°18.989 2°47.636 9.4 -999 14.6 101850 40
2009-09-18 07:32:33 51°19.002 2°47.622 10.3 3 14.6 101850 40
2009-09-18 07:32:38 51°19.014 2°47.608 9.9 3 14.6 101850 40
2009-09-18 07:32:43 51°19.026 2°47.593 9.9 5 14.6 101850 40
2009-09-18 07:32:48 51°19.038 2°47.579 8.9 4 14.6 101850 40
2009-09-18 07:32:53 51°19.05 2°47.565 9.8 3 14.6 101850 40
2009-09-18 07:32:58 51°19.062 2°47.551 9.4 5 14.7 101840 41
2009-09-18 07:33:03 51°19.074 2°47.536 9.5 6 14.7 101840 41
2009-09-18 07:33:08 51°19.086 2°47.522 9 5 14.6 101840 40
2009-09-18 07:33:13 51°19.098 2°47.508 8.4 6 14.6 101840 40
2009-09-18 07:33:18 51°19.11 2°47.494 7.2 6 14.6 101840 40
2009-09-18 07:33:23 51°19.122 2°47.48 9 5 14.6 101840 40
2009-09-18 07:33:28 51°19.134 2°47.466 6.2 6 14.6 101850 39
2009-09-18 07:33:33 51°19.147 2°47.452 9.1 2 14.6 101850 39
2009-09-18 07:33:38 51°19.159 2°47.438 11.2 3 14.6 101840 41
2009-09-18 07:33:43 51°19.171 2°47.424 10.3 4 14.6 101840 41
2009-09-18 07:33:48 51°19.183 2°47.41 8.6 1 14.6 101850 41
2009-09-18 07:33:53 51°19.195 2°47.396 10.3 3 14.6 101850 41
2009-09-18 07:33:58 51°19.207 2°47.382 9.7 5 14.6 101850 40
2009-09-18 07:34:03 51°19.219 2°47.368 11.2 6 14.6 101850 40
2009-09-18 07:34:08 51°19.231 2°47.354 8 8 14.7 101840 41
2009-09-18 07:34:13 51°19.243 2°47.34 10.2 7 14.7 101840 41
2009-09-18 07:34:18 51°19.255 2°47.326 8 3 14.7 101850 40
2009-09-18 07:34:23 51°19.267 2°47.311 9.9 6 14.7 101850 40
2009-09-18 07:34:28 51°19.279 2°47.297 10.1 7 14.6 101840 40
2009-09-18 07:34:33 51°19.291 2°47.283 9.7 4 14.6 101840 40
2009-09-18 07:34:38 51°19.304 2°47.269 9 3 14.6 101850 40
2009-09-18 07:34:43 51°19.316 2°47.255 8.1 6 14.6 101850 40
2009-09-18 07:34:48 51°19.328 2°47.241 8 6 14.6 101850 38
2009-09-18 07:34:53 51°19.341 2°47.227 10.1 3 14.6 101850 38
2009-09-18 07:34:58 51°19.353 2°47.213 8.4 5 14.6 101850 40
2009-09-18 07:35:03 51°19.365 2°47.199 7.8 7 14.6 101850 40
2009-09-18 07:35:08 51°19.377 2°47.184 8.2 3 14.6 101850 39
2009-09-18 07:35:13 51°19.389 2°47.17 8.3 5 14.6 101850 39
2009-09-18 07:35:18 51°19.402 2°47.156 9.5 2 14.6 101850 40
2009-09-18 07:35:23 51°19.414 2°47.142 9.3 2 14.6 101850 40
2009-09-18 07:35:28 51°19.426 2°47.129 10 6 14.6 101850 40
2009-09-18 07:35:33 51°19.438 2°47.114 9.4 6 14.6 101850 40
2009-09-18 07:35:38 51°19.45 2°47.1 9.6 8 14.6 101860 40
2009-09-18 07:35:43 51°19.462 2°47.086 10.1 7 14.6 101860 40
2009-09-18 07:35:48 51°19.473 2°47.072 9.6 6 14.6 101860 40
2009-09-18 07:35:53 51°19.485 2°47.058 8.8 6 14.6 101860 40
2009-09-18 07:35:58 51°19.498 2°47.044 10.5 3 14.6 101860 40
2009-09-18 07:36:03 51°19.51 2°47.03 8.9 7 14.6 101860 40
2009-09-18 07:36:08 51°19.522 2°47.016 9.2 5 14.6 101850 39
2009-09-18 07:36:13 51°19.535 2°47.001 9.8 6 14.6 101850 39
2009-09-18 07:36:18 51°19.547 2°46.987 9.2 7 14.6 101860 40
2009-09-18 07:36:23 51°19.559 2°46.973 10.9 9 14.6 101860 40
2009-09-18 07:36:28 51°19.572 2°46.959 7.8 6 14.6 101860 40
2009-09-18 07:36:33 51°19.584 2°46.945 8.9 5 14.6 101860 40
2009-09-18 07:36:38 51°19.596 2°46.931 8.4 6 14.6 101860 39
2009-09-18 07:36:43 51°19.608 2°46.917 9.6 3 14.6 101860 39
2009-09-18 07:36:48 51°19.62 2°46.903 8 4 14.6 101860 40
2009-09-18 07:36:53 51°19.632 2°46.889 9.2 3 14.6 101860 40
2009-09-18 07:36:58 51°19.645 2°46.875 9.5 5 14.6 101860 40
2009-09-18 07:37:03 51°19.657 2°46.861 9.5 6 14.6 101860 40
2009-09-18 07:37:08 51°19.669 2°46.847 9.8 6 14.7 101860 40
2009-09-18 07:37:13 51°19.681 2°46.833 8.5 7 14.7 101860 40
2009-09-18 07:37:18 51°19.693 2°46.819 8.4 -999 14.7 101850 41
2009-09-18 07:37:23 51°19.705 2°46.805 8.4 6 14.7 101850 41
2009-09-18 07:37:28 51°19.717 2°46.791 9.9 4 14.7 101860 39
2009-09-18 07:37:33 51°19.73 2°46.777 10.1 5 14.7 101860 39
2009-09-18 07:37:38 51°19.742 2°46.764 8.1 5 14.7 101860 40
2009-09-18 07:37:43 51°19.754 2°46.75 9.7 5 14.7 101860 40
2009-09-18 07:37:48 51°19.766 2°46.736 9.6 4 14.7 101860 40
2009-09-18 07:37:53 51°19.779 2°46.722 9.6 5 14.7 101860 40
2009-09-18 07:37:58 51°19.791 2°46.708 9.7 3 14.7 101860 40
2009-09-18 07:38:03 51°19.803 2°46.694 9.6 4 14.7 101860 40
2009-09-18 07:38:08 51°19.816 2°46.68 9.3 6 14.7 101850 40
2009-09-18 07:38:13 51°19.828 2°46.667 7.6 4 14.7 101850 40
2009-09-18 07:38:18 51°19.841 2°46.653 7.7 6 14.7 101860 40
2009-09-18 07:38:23 51°19.853 2°46.639 8.9 7 14.7 101860 40
2009-09-18 07:38:28 51°19.866 2°46.625 9.5 5 14.7 101860 40
2009-09-18 07:38:33 51°19.878 2°46.612 9.8 6 14.7 101860 40
2009-09-18 07:38:38 51°19.891 2°46.599 10.6 8 14.7 101850 40
2009-09-18 07:38:43 51°19.903 2°46.585 9.5 5 14.7 101850 40
2009-09-18 07:38:48 51°19.916 2°46.572 9.9 5 14.7 101860 40
2009-09-18 07:38:53 51°19.928 2°46.558 9.1 7 14.7 101860 40
2009-09-18 07:38:58 51°19.941 2°46.544 8.8 6 14.7 101860 39
2009-09-18 07:39:03 51°19.953 2°46.531 7.9 6 14.7 101860 39
2009-09-18 07:39:08 51°19.966 2°46.517 9.2 7 14.6 101860 39
2009-09-18 07:39:13 51°19.978 2°46.503 8.4 6 14.6 101860 39
2009-09-18 07:39:18 51°19.99 2°46.489 10.2 7 14.7 101850 39
2009-09-18 07:39:23 51°20.003 2°46.477 10.6 9 14.7 101850 39
2009-09-18 07:39:28 51°20.016 2°46.464 7.8 4 14.7 101860 40
2009-09-18 07:39:33 51°20.028 2°46.45 9.4 3 14.7 101860 40
2009-09-18 07:39:38 51°20.041 2°46.437 10 4 14.7 101870 40
2009-09-18 07:39:43 51°20.054 2°46.425 9.6 1 14.7 101870 40
2009-09-18 07:39:48 51°20.067 2°46.412 10.4 360 14.6 101850 39
2009-09-18 07:39:53 51°20.08 2°46.401 10.9 360 14.6 101850 39
2009-09-18 07:39:58 51°20.093 2°46.389 12.1 -999 14.7 101870 40
2009-09-18 07:40:03 51°20.106 2°46.377 11.4 1 14.7 101870 40
2009-09-18 07:40:08 51°20.119 2°46.365 11.5 1 14.8 101870 40
2009-09-18 07:40:13 51°20.132 2°46.353 10.4 1 14.8 101870 40
2009-09-18 07:40:18 51°20.145 2°46.341 11 4 14.8 101860 40
2009-09-18 07:40:23 51°20.158 2°46.33 11.3 2 14.8 101860 40
2009-09-18 07:40:28 51°20.171 2°46.318 10.2 5 14.8 101850 40
2009-09-18 07:40:33 51°20.185 2°46.307 10.7 4 14.8 101850 40
2009-09-18 07:40:38 51°20.198 2°46.296 10.3 3 14.8 101850 40
2009-09-18 07:40:43 51°20.211 2°46.284 10.1 2 14.8 101850 40
2009-09-18 07:40:48 51°20.224 2°46.273 9.9 1 14.8 101850 40
2009-09-18 07:40:53 51°20.237 2°46.262 10.9 2 14.8 101850 40
2009-09-18 07:40:58 51°20.251 2°46.249 8.8 2 14.7 101850 39
2009-09-18 07:41:04 51°20.266 2°46.236 9.6 2 14.7 101850 39
2009-09-18 07:41:08 51°20.277 2°46.226 9.8 6 14.7 101860 39
2009-09-18 07:41:13 51°20.29 2°46.215 9.7 4 14.7 101860 39
2009-09-18 07:41:18 51°20.303 2°46.203 9.9 5 14.7 101860 40
2009-09-18 07:41:23 51°20.317 2°46.192 9.6 4 14.7 101860 40
2009-09-18 07:41:28 51°20.33 2°46.18 9.5 4 14.7 101860 40
2009-09-18 07:41:32 51°20.34 2°46.171 9.7 3 14.7 101860 40
2009-09-18 07:41:38 51°20.356 2°46.157 8.6 2 14.7 101860 39
2009-09-18 07:41:43 51°20.369 2°46.145 10.2 359 14.7 101860 39
2009-09-18 07:41:48 51°20.383 2°46.134 11.1 2 14.7 101860 39
2009-09-18 07:41:53 51°20.396 2°46.122 9.7 2 14.7 101860 39
2009-09-18 07:41:58 51°20.409 2°46.111 10.9 4 14.7 101860 41
2009-09-18 07:42:03 51°20.422 2°46.099 9.2 5 14.7 101860 41
2009-09-18 07:42:08 51°20.435 2°46.087 9.6 4 14.7 101860 41
2009-09-18 07:42:13 51°20.448 2°46.075 9.6 2 14.7 101860 41
2009-09-18 07:42:18 51°20.462 2°46.064 9.4 3 14.7 101860 39
2009-09-18 07:42:23 51°20.475 2°46.052 9.3 1 14.7 101860 39
2009-09-18 07:42:28 51°20.488 2°46.041 11 3 14.7 101850 39
2009-09-18 07:42:33 51°20.502 2°46.029 9.7 4 14.7 101850 39
2009-09-18 07:42:38 51°20.515 2°46.016 8.3 5 14.7 101860 39
2009-09-18 07:42:43 51°20.528 2°46.005 8.9 6 14.7 101860 39
2009-09-18 07:42:48 51°20.541 2°45.993 8.8 8 14.7 101850 38
2009-09-18 07:42:52 51°20.551 2°45.984 9.4 -999 14.7 101850 38
2009-09-18 07:42:58 51°20.567 2°45.97 9.5 5 14.7 101850 39
2009-09-18 07:43:03 51°20.58 2°45.958 9.3 5 14.7 101850 39
2009-09-18 07:43:08 51°20.593 2°45.947 9.4 4 14.7 101860 39
2009-09-18 07:43:13 51°20.606 2°45.935 9.8 7 14.7 101860 39
2009-09-18 07:43:18 51°20.619 2°45.924 7.5 5 14.7 101870 39
2009-09-18 07:43:23 51°20.632 2°45.912 9.9 3 14.7 101870 39
2009-09-18 07:43:28 51°20.645 2°45.9 10.6 3 14.7 101850 40
2009-09-18 07:43:33 51°20.659 2°45.889 10.4 3 14.7 101850 40
2009-09-18 07:43:38 51°20.672 2°45.877 9.7 5 14.7 101850 39
2009-09-18 07:43:43 51°20.685 2°45.866 10.6 3 14.7 101850 39
2009-09-18 07:43:48 51°20.698 2°45.853 9.9 5 14.8 101860 40
2009-09-18 07:43:53 51°20.711 2°45.842 9.9 5 14.8 101860 40
2009-09-18 07:43:58 51°20.725 2°45.83 11.1 5 14.8 101860 39
2009-09-18 07:44:04 51°20.74 2°45.816 10.3 7 14.8 101860 39
2009-09-18 07:44:09 51°20.754 2°45.804 10.6 7 14.8 101860 40
2009-09-18 07:44:12 51°20.761 2°45.797 10.2 7 14.8 101860 40
2009-09-18 07:44:18 51°20.777 2°45.783 8.1 4 14.8 101850 40
2009-09-18 07:44:24 51°20.793 2°45.769 10.4 7 14.8 101850 40
2009-09-18 07:44:28 51°20.804 2°45.76 9.8 5 14.7 101860 39
2009-09-18 07:44:33 51°20.817 2°45.748 10 3 14.7 101860 39
2009-09-18 07:44:37 51°20.828 2°45.739 9.3 3 14.7 101860 39
2009-09-18 07:44:43 51°20.844 2°45.725 10.6 2 14.7 101860 39
2009-09-18 07:44:48 51°20.857 2°45.713 12.3 359 14.8 101860 39
2009-09-18 07:44:53 51°20.87 2°45.702 9.7 360 14.8 101860 39
2009-09-18 07:44:58 51°20.883 2°45.691 11.1 -999 14.8 101850 40
2009-09-18 07:45:03 51°20.896 2°45.679 10.4 2 14.8 101850 40
2009-09-18 07:45:08 51°20.91 2°45.668 11.1 4 14.8 101860 39
2009-09-18 07:45:13 51°20.923 2°45.656 11.3 5 14.8 101860 39
2009-09-18 07:45:17 51°20.934 2°45.647 9.1 7 14.8 101850 39
2009-09-18 07:45:24 51°20.952 2°45.63 8.6 5 14.8 101850 39
2009-09-18 07:45:29 51°20.965 2°45.618 11.8 1 14.8 101860 38
2009-09-18 07:45:34 51°20.978 2°45.607 10.4 5 14.8 101860 38
2009-09-18 07:45:38 51°20.988 2°45.598 9.3 4 14.8 101850 40
2009-09-18 07:45:43 51°21.002 2°45.586 11.6 6 14.8 101850 40
2009-09-18 07:45:49 51°21.017 2°45.572 10 4 14.8 101850 39
2009-09-18 07:45:54 51°21.03 2°45.56 10.4 5 14.8 101850 39
2009-09-18 07:45:58 51°21.041 2°45.55 9.8 7 14.9 101850 39
2009-09-18 07:46:03 51°21.054 2°45.538 8.7 5 14.9 101850 39
2009-09-18 07:46:08 51°21.067 2°45.526 8.3 5 14.8 101860 39
2009-09-18 07:46:13 51°21.081 2°45.515 8.6 3 14.8 101860 39
2009-09-18 07:46:18 51°21.094 2°45.503 10.3 3 14.8 101850 39
2009-09-18 07:46:23 51°21.107 2°45.491 8.7 5 14.8 101850 39
2009-09-18 07:46:28 51°21.119 2°45.48 10.7 6 14.8 101860 39
2009-09-18 07:46:33 51°21.132 2°45.467 9.7 4 14.8 101860 39
2009-09-18 07:46:38 51°21.145 2°45.455 10.6 5 14.9 101870 39
2009-09-18 07:46:43 51°21.159 2°45.443 8.6 4 14.9 101870 39
2009-09-18 07:46:48 51°21.171 2°45.431 9 5 14.9 101860 39
2009-09-18 07:46:53 51°21.185 2°45.42 9.2 3 14.9 101860 39
2009-09-18 07:46:58 51°21.198 2°45.409 8.4 360 14.9 101850 39
2009-09-18 07:47:03 51°21.211 2°45.397 10 1 14.9 101850 39
2009-09-18 07:47:08 51°21.224 2°45.386 8.5 6 14.9 101860 39
2009-09-18 07:47:13 51°21.237 2°45.374 10.8 3 14.9 101860 39
2009-09-18 07:47:18 51°21.25 2°45.362 10.4 4 14.9 101860 40
2009-09-18 07:47:23 51°21.264 2°45.351 10.9 3 14.9 101860 40
2009-09-18 07:47:27 51°21.274 2°45.341 9.5 4 15 101860 40
2009-09-18 07:47:33 51°21.29 2°45.328 10 3 15 101860 40
2009-09-18 07:47:37 51°21.3 2°45.318 11.1 2 15 101850 39
2009-09-18 07:47:43 51°21.315 2°45.304 10.8 2 15 101850 39
2009-09-18 07:47:48 51°21.328 2°45.292 9.6 7 15 101850 40
2009-09-18 07:47:53 51°21.341 2°45.281 9.7 4 15 101850 40
2009-09-18 07:47:57 51°21.352 2°45.272 9.9 1 15 101850 39
2009-09-18 07:48:02 51°21.365 2°45.26 10.2 3 15 101850 39
2009-09-18 07:48:08 51°21.381 2°45.246 10.3 2 15 101860 37
2009-09-18 07:48:13 51°21.394 2°45.234 11.6 2 15 101860 37
2009-09-18 07:48:18 51°21.407 2°45.222 10.3 1 14.9 101860 39
2009-09-18 07:48:22 51°21.417 2°45.214 10.8 -999 14.9 101860 39
2009-09-18 07:48:28 51°21.433 2°45.2 11.6 -999 15 101860 39
2009-09-18 07:48:33 51°21.446 2°45.189 11 3 15 101860 39
2009-09-18 07:48:38 51°21.459 2°45.177 10.3 1 15 101860 39
2009-09-18 07:48:43 51°21.472 2°45.166 10.8 359 15 101860 39
2009-09-18 07:48:48 51°21.485 2°45.154 11.7 5 15 101850 39
2009-09-18 07:48:53 51°21.498 2°45.143 9.2 5 15 101850 39
2009-09-18 07:48:58 51°21.512 2°45.132 9.7 1 15 101850 39
2009-09-18 07:49:03 51°21.525 2°45.12 10.3 2 15 101850 39
2009-09-18 07:49:07 51°21.535 2°45.111 9.7 360 15 101840 39
2009-09-18 07:49:13 51°21.55 2°45.097 10.3 359 15 101840 39
2009-09-18 07:49:18 51°21.563 2°45.086 11.4 358 15 101850 39
2009-09-18 07:49:23 51°21.576 2°45.075 12.7 360 15 101850 39
2009-09-18 07:49:28 51°21.589 2°45.064 11.2 2 15 101850 40
2009-09-18 07:49:33 51°21.602 2°45.053 10.2 4 15 101850 40
2009-09-18 07:49:38 51°21.615 2°45.041 10.7 360 15 101850 40
2009-09-18 07:49:43 51°21.629 2°45.031 10 360 15 101850 40
2009-09-18 07:49:48 51°21.642 2°45.02 11.7 1 15 101850 39
2009-09-18 07:49:53 51°21.655 2°45.009 10.4 3 15 101850 39
2009-09-18 07:49:57 51°21.665 2°44.999 10.3 2 15 101850 40
2009-09-18 07:50:03 51°21.681 2°44.986 11.1 2 15 101850 40
2009-09-18 07:50:08 51°21.694 2°44.975 11.2 5 15 101850 39
2009-09-18 07:50:13 51°21.707 2°44.963 8.8 359 15 101850 39
2009-09-18 07:50:18 51°21.72 2°44.952 10.1 2 15 101860 38
2009-09-18 07:50:22 51°21.731 2°44.943 9.6 4 15 101860 38
2009-09-18 07:50:27 51°21.743 2°44.932 11 3 15 101850 39
2009-09-18 07:50:33 51°21.759 2°44.918 8.5 6 15 101850 39
2009-09-18 07:50:38 51°21.772 2°44.907 10.3 6 15 101850 39
2009-09-18 07:50:42 51°21.782 2°44.898 10.4 7 15 101850 37
2009-09-18 07:50:47 51°21.795 2°44.887 10 2 15 101850 37
2009-09-18 07:50:53 51°21.81 2°44.873 9 5 14.9 101850 38
2009-09-18 07:50:58 51°21.824 2°44.862 9.4 1 14.9 101850 38
2009-09-18 07:51:02 51°21.834 2°44.853 9.1 4 14.9 101850 39
2009-09-18 07:51:08 51°21.849 2°44.839 10.7 -999 14.9 101850 39
2009-09-18 07:51:13 51°21.861 2°44.827 11.9 2 14.9 101850 39
2009-09-18 07:51:18 51°21.875 2°44.817 9.9 6 14.9 101850 39
2009-09-18 07:51:23 51°21.887 2°44.804 11 8 15 101860 38
2009-09-18 07:51:28 51°21.899 2°44.793 9 7 15 101860 38
2009-09-18 07:51:33 51°21.912 2°44.782 9.3 5 15 101860 39
2009-09-18 07:51:38 51°21.925 2°44.771 8.4 357 15 101860 39
2009-09-18 07:51:43 51°21.938 2°44.76 10.1 2 15 101860 39
2009-09-18 07:51:48 51°21.95 2°44.748 9.7 5 15 101860 39
2009-09-18 07:51:53 51°21.963 2°44.736 10.3 3 15 101860 39
2009-09-18 07:51:58 51°21.975 2°44.725 10.3 5 15 101860 39
2009-09-18 07:52:03 51°21.988 2°44.713 11.1 3 15 101860 39
2009-09-18 07:52:08 51°22 2°44.702 9 5 15 101860 39
2009-09-18 07:52:13 51°22.013 2°44.691 9.2 -999 15 101860 38
2009-09-18 07:52:18 51°22.026 2°44.679 10.5 4 15 101860 38
2009-09-18 07:52:23 51°22.038 2°44.668 10 6 15 101860 39
2009-09-18 07:52:28 51°22.051 2°44.657 8.3 7 15 101860 39
2009-09-18 07:52:33 51°22.064 2°44.646 9.7 6 15 101850 39
2009-09-18 07:52:37 51°22.074 2°44.637 11.8 8 15 101850 39
2009-09-18 07:52:42 51°22.087 2°44.625 10.4 5 15 101850 38
2009-09-18 07:52:48 51°22.103 2°44.612 9 5 15 101850 38
2009-09-18 07:52:53 51°22.116 2°44.6 9.8 6 15 101860 38
2009-09-18 07:52:58 51°22.128 2°44.588 8.6 5 15 101860 38
2009-09-18 07:53:02 51°22.138 2°44.579 9.9 3 15 101850 39
2009-09-18 07:53:08 51°22.154 2°44.565 9.4 -999 15 101850 39
2009-09-18 07:53:13 51°22.167 2°44.554 9.7 4 15 101850 38
2009-09-18 07:53:18 51°22.18 2°44.543 10.6 1 15 101850 38
2009-09-18 07:53:23 51°22.193 2°44.531 9.8 4 15 101850 40
2009-09-18 07:53:28 51°22.206 2°44.52 10.2 1 15 101850 40
2009-09-18 07:53:33 51°22.218 2°44.508 9.2 2 15.1 101850 40
2009-09-18 07:53:38 51°22.231 2°44.497 10.8 4 15.1 101850 40
2009-09-18 07:53:43 51°22.244 2°44.486 9.9 4 15.1 101860 39
2009-09-18 07:53:48 51°22.257 2°44.475 10.9 4 15.1 101860 39
2009-09-18 07:53:53 51°22.27 2°44.463 10.2 1 15.1 101850 40
2009-09-18 07:53:58 51°22.283 2°44.452 10.6 2 15.1 101850 40
2009-09-18 07:54:03 51°22.296 2°44.441 10.2 5 15.1 101860 39
2009-09-18 07:54:08 51°22.309 2°44.43 12.6 2 15.1 101860 39
2009-09-18 07:54:13 51°22.322 2°44.419 9.9 5 15.1 101850 38
2009-09-18 07:54:18 51°22.335 2°44.407 9.7 6 15.1 101850 38
2009-09-18 07:54:23 51°22.347 2°44.396 11.2 5 15.1 101850 40
2009-09-18 07:54:28 51°22.36 2°44.384 9.6 3 15.1 101850 40
2009-09-18 07:54:33 51°22.373 2°44.373 10.6 3 15.1 101850 38
2009-09-18 07:54:38 51°22.386 2°44.361 11.1 5 15.1 101850 38
2009-09-18 07:54:42 51°22.396 2°44.352 9.7 5 15.1 101850 39
2009-09-18 07:54:48 51°22.411 2°44.338 10.6 6 15.1 101850 39
2009-09-18 07:54:53 51°22.424 2°44.326 9.5 5 15 101850 38
2009-09-18 07:54:58 51°22.437 2°44.315 9.9 7 15 101850 38
2009-09-18 07:55:02 51°22.447 2°44.306 8.9 9 15 101840 38
2009-09-18 07:55:08 51°22.462 2°44.292 9.6 -999 15 101840 38
2009-09-18 07:55:13 51°22.474 2°44.28 9.8 5 15 101850 38
2009-09-18 07:55:18 51°22.487 2°44.27 11.4 6 15 101850 38
2009-09-18 07:55:22 51°22.497 2°44.259 12 8 15 101840 38
2009-09-18 07:55:28 51°22.512 2°44.246 9.5 6 15 101840 38
2009-09-18 07:55:33 51°22.525 2°44.234 11.4 10 15 101850 38
2009-09-18 07:55:38 51°22.537 2°44.223 9.6 7 15 101850 38
2009-09-18 07:55:43 51°22.55 2°44.211 11.5 8 15 101850 39
2009-09-18 07:55:48 51°22.563 2°44.2 9.9 5 15 101850 39
2009-09-18 07:55:53 51°22.576 2°44.188 8.6 5 15 101850 38
2009-09-18 07:55:58 51°22.589 2°44.177 9.7 4 15 101850 38
2009-09-18 07:56:03 51°22.602 2°44.165 10.1 6 15 101860 39
2009-09-18 07:56:08 51°22.614 2°44.154 10.1 7 15 101860 39
2009-09-18 07:56:13 51°22.627 2°44.142 8.3 5 15.1 101850 40
2009-09-18 07:56:18 51°22.64 2°44.132 10.1 5 15.1 101850 40
2009-09-18 07:56:23 51°22.653 2°44.121 9.8 3 15.1 101850 40
2009-09-18 07:56:28 51°22.666 2°44.109 10 3 15.1 101850 40
2009-09-18 07:56:33 51°22.679 2°44.099 11 3 15.1 101850 39
2009-09-18 07:56:38 51°22.691 2°44.087 10.9 4 15.1 101850 39
2009-09-18 07:56:43 51°22.704 2°44.075 10.6 4 15.1 101860 39
2009-09-18 07:56:48 51°22.717 2°44.063 11.3 2 15.1 101860 39
2009-09-18 07:56:53 51°22.73 2°44.051 11.4 4 15.1 101850 39
2009-09-18 07:56:57 51°22.74 2°44.041 12.2 4 15.1 101850 39
2009-09-18 07:57:02 51°22.753 2°44.03 12 3 15.1 101840 38
2009-09-18 07:57:08 51°22.768 2°44.014 10.9 7 15.1 101840 38
2009-09-18 07:57:13 51°22.78 2°44.002 11.3 5 15.1 101850 39
2009-09-18 07:57:18 51°22.793 2°43.99 10.7 6 15.1 101850 39
2009-09-18 07:57:22 51°22.803 2°43.981 10.3 5 15 101850 37
2009-09-18 07:57:28 51°22.818 2°43.967 10.6 6 15 101850 37
2009-09-18 07:57:33 51°22.831 2°43.955 8.5 4 15 101850 38
2009-09-18 07:57:38 51°22.843 2°43.944 11.2 6 15 101850 38
2009-09-18 07:57:42 51°22.854 2°43.934 10.1 7 15 101840 38
2009-09-18 07:57:48 51°22.869 2°43.92 10.6 5 15 101840 38
2009-09-18 07:57:53 51°22.882 2°43.908 9 3 15 101850 39